Weather in Stratford-upon-Avon

United Kingdom     52°11′37″N   1°42′32″W
temp.,
°C
wind,
m/s
gust,
m/s
humid.,
%
clouds,
%
prec.,
mm/h
press.,
hPa
HPBL,
m
4 march, thu
thu400:00+4ne4690100 0.0 1025296
03:00+3ne4688100 0.0 1024329
06:00+3ne4785100 0.0 1025489
09:00+4nne467993 0.0 1026629
12:00+6nne467696 0.0 1026819
15:00+6ne4672100 0.1 1026935
18:00+5nne3682100 0.1 1027295
21:00+2ne5108280 0.2 1029522
5 march, fri
fri500:000ne378140 0.2 1030217
03:00−1ne35853 0.0 1030143
06:00+2ene377250 0.0 1031727
09:00+3ene5765100 0.0 10321068
12:00+4ene4561100 0.0 10331204
15:00+5ene456093 0.0 10331217
18:00+3ene366690 0.0 1033286
21:00+1e367488 0.0 1035146
6 march, sat
sat600:00−1e227551 0.0 103532
03:00−1ese11790 0.0 103529
06:00−2ese11810 0.0 103522
09:00+2se22640 0.0 1035266
12:00+6s33550 0.0 10341034
15:00+7ssw335440 0.0 10321160
18:00+3ssw127370 0.0 103143
21:00+1ssw2279100 0.0 103039
7 march, sun
sun700:000sw238192 0.0 103042
03:00−1sw238650 0.0 102861
06:000wsw248874 0.0 1027117
09:00+3wsw2478100 0.0 1026310
12:00+6w3472100 0.0 1025650
15:00+7wsw3473100 0.0 1024788
18:00+5w349097 0.0 1023125
21:00+3wsw229263 0.0 102346
8 march, mon
mon800:00+2sw229363 0.0 102352
03:000sw22943 0.0 102237
06:000sw22921 0.0 102235
09:00+4ssw358130 0.0 1022255
12:00+8sw467953 0.1 1021379
15:00+7ssw4988100 0.6 1020541
18:00+6sw4108897 0.6 1019385
21:00+6sw5129297 0.0 1019504